HECA Airport Information

Runway Information
Runway 05C Length 13120 ft width 197 ft
Elevation 382 ft Threshold 0 ft Heading 45
Runway 23C Length 13120 ft Width 197 ft
Elevation 0 ft Threshold 0 ft Heading 225
Runway 05L Length 10830 ft width 197 ft
Elevation 190 ft Threshold 0 ft Heading 49
Runway 23R Length 10830 ft Width 197 ft
Elevation 199 ft Threshold 0 ft Heading 229
Runway 05R Length 13124 ft width 197 ft
Elevation 382 ft Threshold 0 ft Heading 49
Runway 23L Length 13124 ft Width 197 ft
Elevation 375 ft Threshold 0 ft Heading 229
Airport Frequencies
Type APP Name APP Frequency 119.05 MHZ
Type ATIS Name ATIS Frequency 122.6 MHZ
Type GND Name GND Frequency 121.9 MHZ
Type MISC Name VOLMET Frequency 126.2 MHZ
Type PFLT Name PREFLIGHT Frequency 120.1 MHZ
Type rdo Name cairo radi Frequency 11.3 MHZ
Type TWR Name TWR Frequency 118.1 MHZ
Type Volmet Name Frequency 124.6 MHZ
Airport Navaids
Type NDB Name Cairo Frequency 310 KHZ
Type VOR-DME Name Cairo Frequency 112500 KHZ
Type VOR-DME Name Cairo Frequency 115200 KHZ
Type NDB Name Cairo Frequency 317 KHZ
Airport Weather Information & NOTAM
ADDS - METARS form results

(1736 UTC 18 March 2019)
Data provider http://aviationweather.gov/metar/data/
 
METAR text: HECA 181730Z 02010KT CAVOK 20/11 Q1019 NOSIG
Conditions at: HECA (CAIRO INTL AIRPO, EG) observed 1730 UTC 18 March 2019
Temperature: 20.0°C (68°F)
Dewpoint: 11.0°C (52°F) [RH = 56%]
Pressure (altimeter): 30.09 inches Hg (1019.0 mb)
Winds: from the NNE (20 degrees) at 12 MPH (10 knots; 5.1 m/s)
Visibility: 6 or more miles (10+ km)
Ceiling: ceiling and visibility are OK
Clouds: unknown
Weather: no significant weather observed at this time

METAR text: HECA 181700Z 03010KT CAVOK 21/09 Q1018 NOSIG
Conditions at: HECA (CAIRO INTL AIRPO, EG) observed 1700 UTC 18 March 2019
Temperature: 21.0°C (70°F)
Dewpoint: 9.0°C (48°F) [RH = 46%]
Pressure (altimeter): 30.06 inches Hg (1018.0 mb)
Winds: from the NNE (30 degrees) at 12 MPH (10 knots; 5.1 m/s)
Visibility: 6 or more miles (10+ km)
Ceiling: ceiling and visibility are OK
Clouds: unknown
Weather: no significant weather observed at this time

Forecast for: HECA (CAIRO INTL AIRPO, EG)
Text: TAF HECA 181700Z 1818/1924 03010KT 9999 FEW025
Forecast period: 1800 UTC 18 March 2019 to 0000 UTC 20 March 2019
Forecast type: FROM: standard forecast or significant change
Winds: from the NNE (30 degrees) at 12 MPH (10 knots; 5.1 m/s)
Visibility: 6 or more miles 10+ km)
Ceiling: at least 12,000 feet AGL
Clouds: few clouds at 2500 feet AGL
Weather: no significant weather forecast for this period
Text: TEMPO 1900/1906 VRB03KT 2000BR NSC
Forecast period: 0000 to 0600 UTC 19 March 2019
Forecast type: TEMPORARY: The following changes expected for less than half the time period
Winds: variable direction winds at 3 MPH (3 knots; 1.5 m/s)
Visibility: missing
Ceiling: unknown
Clouds: missing
Weather: BR  (mist)